User: anonymous   Login
Location: Unspecified
(0.0000°N, 0.0000°E)
Time: 14:52:55
(UTC+00:00)
Language:

POSAT 1 - Orbit

View from above orbital plane
View from above orbital plane
View from above satellite
View from above satellite

Ground track
Ground track

The orbit data is extracted from the following two-line orbital elements,

1 22829U 93061G   17352.18958747 -.00000007  00000-0  14847-4 0  9995
2 22829  98.8264 321.9343 0010765 101.5862  29.3054 14.30988902264389
Epoch (UTC): 18 December 2017 04:33:00
Eccentricity: 0.0010765
inclination: 98.8264°
perigee height: 781 km
apogee height: 796 km
right ascension of ascending node: 321.9343°
argument of perigee: 101.5862°
revolutions per day: 14.30988902
mean anomaly at epoch: 29.3054°
orbit number at epoch: 26438

The dashed part of the orbit path shows where the satellite is in the earth's shadow,  

DLR